Weather History for KOCQ - May, 2013

Change the Weather History Date:

Wednesday, May 15, 2013

  Actual Average Record
Temperature  
Mean Temperature 64 °F -  
Max Temperature 79 °F 66 °F 79 °F (2013)
Min Temperature 48 °F 40 °F 37 °F (2014)
Degree Days  
Heating Degree Days 2    
Growing Degree Days 14 (Base 50)    
Moisture  
Dew Point 42 °F    
Average Humidity 49    
Maximum Humidity 84    
Minimum Humidity 19    
Precipitation  
Precipitation 0.00 in - - ()
Sea Level Pressure  
Sea Level Pressure 29.70 in    
Wind  
Wind Speed 7 mph (WNW)    
Max Wind Speed 18 mph    
Max Gust Speed 28 mph    
Visibility 10 miles    
Events      
Averages and records for this station are not official NWS values.
T = Trace of Precipitation, MM = Missing Value Source: NWS Daily Summary

Daily Weather History Graph

Daily Weather History Graph

Search for Another Location

Airport or City:

Trip Planner

Search our weather history database for the weather conditions in past years. The results will help you decide how hot, cold, wet, or windy it might be!

Date:

Astronomy

May. 15, 2013 Rise Set
Actual Time 5:22 AM CDT 8:13 PM CDT
Civil Twilight 4:48 AM CDT 8:48 PM CDT
Nautical Twilight 4:05 AM CDT 9:31 PM CDT
Astronomical Twilight 3:14 AM CDT 10:23 PM CDT
Moon 10:00 AM CDT (5/15) No Moon Set
Length of Visible Light 15h 59m
Length of Day
14h 51m
Waxing Crescent, 27% of the Moon is Illuminated
May 15
Waxing Crescent
May 17
First Quarter
May 24
Full
May 31
Last Quarter
Jun 8
New

Hourly Weather History & Observations

Time (CDT) Temp. Dew Point Humidity Pressure Visibility Wind Dir Wind Speed Gust Speed Precip Events Conditions
12:15 AM 57.4 °F 47.3 °F 69% 29.46 in 10.0 mi SW 4.6 mph - N/A   Clear
12:35 AM 56.3 °F 47.3 °F 72% 29.46 in 10.0 mi WSW 3.5 mph - N/A   Clear
12:55 AM 54.3 °F 47.3 °F 77% 29.46 in 10.0 mi WNW 4.6 mph - N/A   Clear
1:15 AM 54.1 °F 47.1 °F 77% 29.48 in 10.0 mi NW 5.8 mph - N/A   Clear
1:35 AM 52.9 °F 46.6 °F 79% 29.48 in 10.0 mi NW 5.8 mph - N/A   Clear
1:55 AM 51.8 °F 45.5 °F 79% 29.50 in 10.0 mi NW 5.8 mph - N/A   Clear
2:15 AM 50.9 °F 45.1 °F 81% 29.51 in 10.0 mi NW 4.6 mph - N/A   Clear
2:35 AM 50.2 °F 44.6 °F 81% 29.53 in 10.0 mi WNW 4.6 mph - N/A   Clear
2:55 AM 49.6 °F 44.6 °F 83% 29.54 in 10.0 mi Calm Calm - N/A   Clear
3:15 AM 48.9 °F 44.4 °F 84% 29.55 in 10.0 mi West 4.6 mph - N/A   Clear
3:35 AM 49.5 °F 44.8 °F 84% 29.56 in 10.0 mi WNW 5.8 mph - N/A   Clear
3:55 AM 51.8 °F 45.5 °F 79% 29.57 in 10.0 mi West 4.6 mph - N/A   Clear
4:15 AM 51.1 °F 45.3 °F 81% 29.57 in 10.0 mi WNW 6.9 mph - N/A   Clear
4:35 AM 54.1 °F 46.8 °F 76% 29.58 in 10.0 mi West 6.9 mph - N/A   Clear
4:55 AM 52.9 °F 46.8 °F 80% 29.59 in 10.0 mi West 9.2 mph - N/A   Clear
5:15 AM 52.5 °F 46.4 °F 80% 29.61 in 10.0 mi West 8.1 mph - N/A   Clear
5:35 AM 55.0 °F 46.6 °F 73% 29.62 in 10.0 mi WNW 8.1 mph - N/A   Clear
5:55 AM 56.3 °F 46.4 °F 69% 29.63 in 10.0 mi West 8.1 mph - N/A   Clear
6:15 AM 57.2 °F 46.4 °F 67% 29.64 in 10.0 mi WNW 8.1 mph - N/A   Clear
6:35 AM 58.6 °F 46.4 °F 64% 29.66 in 10.0 mi WNW 8.1 mph - N/A   Clear
6:55 AM 60.3 °F 46.8 °F 61% 29.68 in 10.0 mi WNW 5.8 mph - N/A   Clear
7:15 AM 62.1 °F 47.3 °F 58% 29.69 in 10.0 mi WNW 6.9 mph - N/A   Clear
7:35 AM 63.1 °F 47.7 °F 57% 29.71 in 10.0 mi NW 6.9 mph - N/A   Clear
7:55 AM 63.9 °F 47.3 °F 55% 29.71 in 10.0 mi NW 6.9 mph 16.1 mph N/A   Clear
8:15 AM 64.9 °F 47.1 °F 52% 29.72 in 10.0 mi North 10.4 mph - N/A   Clear
8:35 AM 65.3 °F 45.9 °F 49% 29.73 in 10.0 mi NW 6.9 mph - N/A   Clear
8:55 AM 66.2 °F 45.7 °F 48% 29.74 in 10.0 mi NNW 11.5 mph - N/A   Clear
9:15 AM 66.7 °F 45.0 °F 45% 29.75 in 10.0 mi NW 10.4 mph 17.3 mph N/A   Clear
9:35 AM 68.4 °F 44.4 °F 42% 29.76 in 10.0 mi NW 10.4 mph 16.1 mph N/A   Clear
9:55 AM 68.9 °F 43.3 °F 40% 29.76 in 10.0 mi WNW 11.5 mph 16.1 mph N/A   Clear
10:15 AM 69.6 °F 43.7 °F 39% 29.76 in 10.0 mi WNW 8.1 mph - N/A   Clear
10:35 AM 70.3 °F 42.8 °F 37% 29.77 in 10.0 mi WNW 10.4 mph 21.9 mph N/A   Clear
10:55 AM 72.3 °F 39.6 °F 30% 29.78 in 10.0 mi NW 12.7 mph 18.4 mph N/A   Clear
11:15 AM 72.3 °F 40.5 °F 32% 29.78 in 10.0 mi West 17.3 mph 21.9 mph N/A   Clear
11:35 AM 73.8 °F 39.4 °F 29% 29.78 in 10.0 mi WNW 9.2 mph 19.6 mph N/A   Clear
11:55 AM 73.4 °F 36.3 °F 26% 29.78 in 10.0 mi WNW 13.8 mph 27.6 mph N/A   Clear
12:15 PM 75.4 °F 38.7 °F 27% 29.78 in 10.0 mi WNW 12.7 mph 21.9 mph N/A   Clear
12:35 PM 75.4 °F 37.8 °F 26% 29.76 in 10.0 mi NNW 10.4 mph 18.4 mph N/A   Clear
12:55 PM 75.2 °F 36.9 °F 25% 29.76 in 10.0 mi WNW 9.2 mph 18.4 mph N/A   Clear
1:15 PM 74.8 °F 36.0 °F 24% 29.76 in 10.0 mi NNW 10.4 mph - N/A   Clear
1:35 PM 73.9 °F 36.1 °F 25% 29.75 in 10.0 mi NW 5.8 mph - N/A   Clear
1:55 PM 73.8 °F 33.8 °F 23% 29.76 in 10.0 mi WNW 12.7 mph 20.7 mph N/A   Clear
2:15 PM 75.7 °F 35.1 °F 23% 29.76 in 10.0 mi West 15.0 mph 19.6 mph N/A   Clear
2:35 PM 75.9 °F 35.2 °F 23% 29.76 in 10.0 mi West 11.5 mph 19.6 mph N/A   Clear
2:55 PM 74.1 °F 35.1 °F 24% 29.75 in 10.0 mi WNW 9.2 mph 16.1 mph N/A   Clear
3:15 PM 77.2 °F 35.2 °F 22% 29.75 in 10.0 mi West 18.4 mph 21.9 mph N/A   Clear
3:35 PM 77.5 °F 34.9 °F 21% 29.75 in 10.0 mi West 17.3 mph 21.9 mph N/A   Clear
3:55 PM 77.9 °F 33.8 °F 20% 29.74 in 10.0 mi West 17.3 mph 21.9 mph N/A   Clear
4:15 PM 78.1 °F 32.7 °F 19% 29.73 in 10.0 mi WSW 11.5 mph 20.7 mph N/A   Clear
4:35 PM 79.0 °F 34.5 °F 20% 29.73 in 10.0 mi West 10.4 mph 16.1 mph N/A   Clear
4:55 PM 78.1 °F 33.3 °F 20% 29.73 in 10.0 mi West 16.1 mph 19.6 mph N/A   Clear
5:15 PM 78.3 °F 34.3 °F 20% 29.73 in 10.0 mi WSW 6.9 mph 17.3 mph N/A   Clear
5:35 PM 78.6 °F 34.7 °F 20% 29.73 in 10.0 mi WNW 9.2 mph - N/A   Clear
5:55 PM 78.3 °F 33.8 °F 20% 29.73 in 10.0 mi WNW 9.2 mph - N/A   Clear
6:15 PM 77.9 °F 34.0 °F 20% 29.73 in 10.0 mi WNW 5.8 mph - N/A   Clear
6:35 PM 77.4 °F 34.7 °F 21% 29.73 in 10.0 mi WNW 5.8 mph - N/A   Clear
6:55 PM 76.3 °F 35.4 °F 23% 29.73 in 10.0 mi NW 4.6 mph - N/A   Clear
7:15 PM 75.6 °F 37.2 °F 25% 29.74 in 10.0 mi NW 5.8 mph - N/A   Clear
7:35 PM 74.7 °F 37.6 °F 26% 29.74 in 10.0 mi WNW 3.5 mph - N/A   Clear
7:55 PM 71.2 °F 39.9 °F 32% 29.75 in 10.0 mi Calm Calm - N/A   Clear
8:15 PM 66.7 °F 41.0 °F 39% 29.75 in 10.0 mi Calm Calm - N/A   Clear
8:35 PM 63.5 °F 42.3 °F 46% 29.76 in 10.0 mi Calm Calm - N/A   Clear
8:55 PM 59.4 °F 43.5 °F 56% 29.76 in 10.0 mi Calm Calm - N/A   Clear
9:15 PM 57.6 °F 42.1 °F 56% 29.77 in 10.0 mi Calm Calm - N/A   Clear
9:35 PM 55.4 °F 44.6 °F 67% 29.77 in 10.0 mi Calm Calm - N/A   Clear
9:55 PM 55.6 °F 43.5 °F 64% 29.78 in 10.0 mi Calm Calm - N/A   Clear
10:15 PM 54.1 °F 43.7 °F 68% 29.78 in 10.0 mi Calm Calm - N/A   Clear
10:35 PM 51.4 °F 44.1 °F 76% 29.78 in 10.0 mi West 3.5 mph - N/A   Clear
10:55 PM 54.1 °F 44.2 °F 69% 29.78 in 10.0 mi West 4.6 mph - N/A   Clear
11:15 PM 53.6 °F 44.1 °F 70% 29.78 in 10.0 mi West 3.5 mph - N/A   Clear
11:35 PM 51.8 °F 43.0 °F 72% 29.78 in 10.0 mi West 3.5 mph - N/A   Clear
11:55 PM 52.3 °F 42.8 °F 70% 29.79 in 10.0 mi West 4.6 mph - N/A   Clear